Погода в Сиэтле

США     47°36′28″N   122°19′42″W
темп.,
°C
ветер,
м/с
пор.,
м/с
влажн.,
%
обл.,
%
осадки,
мм/ч
давл.,
гПа
погр.,
м
16 октября, сб
сб1623:00+13юв2672100 0.0 1020266
02:00+13ююв2673100 0.0 1019246
05:00+13ю2374100 0.0 1017117
08:00+13ююв2468100 0.0 1016165
11:00+14ю146048 0.0 1015243
14:00+20ююз584292 0.0 10131465
17:00+18ююз395257 0.0 1011831
20:00+14ююв256788 0.0 1010188
17 октября, вс
вс1723:00+13ююв2575100 0.0 1009161
02:00+12ю2474100 0.0 1007111
05:00+12юв2470100 0.0 1006162
08:00+12ю2561100 0.0 1005197
11:00+13ю3571100 0.0 1005527
14:00+13ююз3466100 0.0 1005723
17:00+13зюз2264100 0.0 1006460
20:00+10с3478100 0.0 1008477
18 октября, пн
пн1823:00+9ссв367895 0.4 1010540
02:00+9ссв3775100 0.0 1010579
05:00+9ссв2476100 0.0 1012506
08:00+9с1379100 0.0 1015382
11:00+10сз1175100 0.1 1017540
14:00+10ююз2273100 0.1 1018583
17:00+10юв127063 0.1 1017459
20:00+8вюв118361 0.0 101718
19 октября, вт
вт1923:00+8в1186100 0.0 101721
02:00+7в0087100 0.0 101619
05:00+6зсз118913 0.0 101516
08:00+6сз118980 0.0 101334
11:00+11зсз0062100 0.0 1012305
14:00+15зсз1047100 0.0 1010392
17:00+15с1250100 0.0 1007170
20:00+12ссв116285 0.0 100714
20 октября, ср
ср2023:00+11св1166100 0.0 100618
02:00+10ю2266100 0.0 100743
05:00+10ю3870100 0.0 1009309
08:00+9ююв2583100 0.5 1010265
11:00+9вюв2692100 3.8 1012194
14:00+13ююз4977100 1.5 1014924
17:00+12ююв2881100 2.6 1015556
20:00+10юв118731 0.1 101712